Eau Claire, WI

12:05 PM CDT on October 15, 2019 (GMT -0500)
Chippewa Valley Regional

Weather History for KEAU - September, 2019

Change the Weather History Date:

Sunday, September 22, 2019

  Actual Average Record
Temperature  
Mean Temperature 66 °F 57 °F  
Max Temperature 73 °F 69 °F 93 °F (1937)
Min Temperature 57 °F 46 °F 25 °F (1974)
Degree Days  
Heating Degree Days 0 8  
Month to date heating degree days 52 110  
Since 1 July heating degree days 73 149  
Cooling Degree Days 0 1  
Month to date cooling degree days 65 43  
Year to date cooling degree days 456 570  
Growing Degree Days 16 (Base 50)    
Moisture  
Dew Point 57 °F    
Average Humidity 72    
Maximum Humidity 90    
Minimum Humidity 52    
Precipitation  
Precipitation T in 0.13 in 1.86 in (1895)
Month to date precipitation 5.06 2.75  
Year to date precipitation 33.42 24.87  
Snow  
Snow 0.00 in 0.00 in 0.00 in ()
Month to date snowfall 0.0 0.0  
Since 1 July snowfall 0.0 0.0  
Since 1 September snowfall 0.0 0.0  
Snow Depth 0.00 in    
Sea Level Pressure  
Sea Level Pressure 29.82 in    
Wind  
Wind Speed 6 mph ()    
Max Wind Speed 17 mph    
Max Gust Speed 24 mph    
Visibility 10.0 miles    
Events Rain    
T = Trace of Precipitation, MM = Missing Value Source: Averaged Metar Reports

Daily Weather History Graph

Daily Weather History Graph

Search for Another Location

Airport or City:

Astronomy

Sep. 22, 2019 Rise Set
Actual Time 6:52 AM CDT 7:03 PM CDT
Civil Twilight 6:23 AM CDT 7:33 PM CDT
Nautical Twilight 5:49 AM CDT 8:07 PM CDT
Astronomical Twilight 5:13 AM CDT 8:42 PM CDT
Moon No Moon Rise 3:15 PM CDT (9/22)
Length of Visible Light 13h 09m
Length of Day
12h 11m
Last Quarter, 44% of the Moon is Illuminated
Sep 22
Last Quarter
Sep 28
New
Oct 5
First Quarter
Oct 13
Full
Oct 21
Last Quarter

Hourly Weather History & Observations

Time (CDT) Temp. Dew Point Humidity Pressure Visibility Wind Dir Wind Speed Gust Speed Precip Events Conditions
12:56 AM 73.9 °F 68.0 °F 82% 29.80 in 10.0 mi SW 8.1 mph - N/A   Partly Cloudy
1:56 AM 72.0 °F 66.9 °F 84% 29.80 in 10.0 mi SSW 5.8 mph - N/A   Clear
2:56 AM 72.0 °F 66.9 °F 84% 29.79 in 10.0 mi WSW 5.8 mph - N/A   Partly Cloudy
3:56 AM 70.0 °F 66.0 °F 87% 29.79 in 10.0 mi West 5.8 mph - N/A   Clear
4:56 AM 68.0 °F 62.1 °F 81% 29.79 in 10.0 mi West 6.9 mph - N/A   Clear
5:56 AM 66.9 °F 59.0 °F 76% 29.81 in 10.0 mi WSW 5.8 mph - N/A   Clear
6:56 AM 64.9 °F 57.9 °F 78% 29.81 in 10.0 mi SW 3.5 mph - N/A   Partly Cloudy
7:56 AM 64.9 °F 57.9 °F 78% 29.80 in 10.0 mi Calm Calm - N/A   Partly Cloudy
8:56 AM 64.9 °F 57.9 °F 78% 29.82 in 10.0 mi West 4.6 mph - N/A   Mostly Cloudy
9:56 AM 66.0 °F 57.0 °F 73% 29.83 in 10.0 mi WNW 5.8 mph - N/A   Overcast
10:56 AM 70.0 °F 57.9 °F 65% 29.83 in 10.0 mi Variable 5.8 mph - N/A   Scattered Clouds
11:56 AM 71.1 °F 57.9 °F 63% 29.82 in 10.0 mi West 10.4 mph 16.1 mph N/A   Partly Cloudy
12:56 PM 70.0 °F 57.0 °F 63% 29.80 in 10.0 mi WNW 10.4 mph - N/A   Partly Cloudy
1:56 PM 71.1 °F 57.0 °F 61% 29.77 in 10.0 mi West 6.9 mph - N/A   Scattered Clouds
2:56 PM 72.0 °F 55.9 °F 57% 29.78 in 10.0 mi West 8.1 mph - N/A   Scattered Clouds
3:56 PM 71.1 °F 55.0 °F 57% 29.78 in 10.0 mi West 15.0 mph 24.2 mph N/A   Partly Cloudy
4:56 PM 70.0 °F 52.0 °F 53% 29.81 in 10.0 mi WNW 12.7 mph - N/A   Clear
5:56 PM 66.9 °F 48.9 °F 52% 29.83 in 10.0 mi WNW 11.5 mph - N/A   Overcast
6:56 PM 64.0 °F 50.0 °F 60% 29.85 in 10.0 mi West 10.4 mph - N/A   Overcast
7:56 PM 61.0 °F 52.0 °F 72% 29.87 in 10.0 mi NW 4.6 mph - 0.00 in Rain Light Rain
8:56 PM 59.0 °F 53.1 °F 81% 29.87 in 10.0 mi WNW 5.8 mph - 0.00 in   Partly Cloudy
9:56 PM 57.9 °F 52.0 °F 81% 29.89 in 10.0 mi West 8.1 mph - N/A   Mostly Cloudy
10:56 PM 57.9 °F 53.1 °F 84% 29.90 in 10.0 mi West 4.6 mph - N/A   Overcast
11:56 PM 57.9 °F 52.0 °F 81% 29.90 in 10.0 mi West 5.8 mph - N/A   Mostly Cloudy